Weather History for K6A2 - August, 2014

Change the Weather History Date:

Wednesday, August 20, 2014

  Actual Average (KFFC) Record (KFFC)
Temperature  
Mean Temperature 79 °F 78 °F  
Max Temperature 89 °F 89 °F 95 °F (2002)
Min Temperature 69 °F 68 °F 62 °F (2004)
Degree Days  
Heating Degree Days 0 0  
Month to date heating degree days 0  
Since 1 June heating degree days 1  
Since 1 July heating degree days 0  
Cooling Degree Days 14 13  
Month to date cooling degree days 280  
Year to date cooling degree days 1240  
Since 1 June cooling degree days 1050  
Growing Degree Days 29 (Base 50)    
Moisture  
Dew Point 70 °F    
Average Humidity 85    
Maximum Humidity 100    
Minimum Humidity 55    
Precipitation  
Precipitation 0.00 in 0.15 in 1.07 in (2014)
Month to date precipitation 2.68  
Year to date precipitation 33.09  
Sea Level Pressure  
Sea Level Pressure 30.06 in    
Wind  
Wind Speed 6 mph (West)    
Max Wind Speed 12 mph    
Max Gust Speed 20 mph    
Visibility 9 miles    
Events Thunderstorm    
T = Trace of Precipitation, MM = Missing Value Source: NWS Daily Summary

Daily Weather History Graph

Daily Weather History Graph

Search for Another Location

Airport or City:

Trip Planner

Search our weather history database for the weather conditions in past years. The results will help you decide how hot, cold, wet, or windy it might be!

Date:

Astronomy

Aug. 20, 2014 Rise Set
Actual Time 7:03 AM EDT 8:17 PM EDT
Civil Twilight 6:37 AM EDT 8:42 PM EDT
Nautical Twilight 6:06 AM EDT 9:13 PM EDT
Astronomical Twilight 5:34 AM EDT 9:45 PM EDT
Moon 2:47 AM EDT (8/20) 4:56 PM EDT (8/20)
Length of Visible Light 14h 05m
Length of Day
13h 13m
Waning Crescent, 21% of the Moon is Illuminated
Aug 20
Waning Crescent
Aug 25
New
Sep 2
First Quarter
Sep 8
Full
Sep 15
Last Quarter

Hourly Weather History & Observations

Time (EDT) Temp. Heat Index Dew Point Humidity Pressure Visibility Wind Dir Wind Speed Gust Speed Precip Events Conditions
12:15 AM 73.4 °F - 69.8 °F 88% 30.00 in 10.0 mi WSW 6.9 mph - N/A   Clear
12:35 AM 71.6 °F - 69.8 °F 94% 29.99 in 10.0 mi West 5.8 mph - N/A   Clear
12:55 AM 71.6 °F - 69.8 °F 94% 29.99 in 10.0 mi West 4.6 mph - N/A   Clear
1:35 AM 71.6 °F - 69.8 °F 94% 29.99 in 10.0 mi West 5.8 mph - N/A   Scattered Clouds
1:55 AM 71.6 °F - 69.8 °F 94% 29.98 in 10.0 mi West 5.8 mph - N/A   Clear
2:15 AM 71.6 °F - 69.8 °F 94% 29.97 in 10.0 mi West 4.6 mph - N/A   Clear
2:35 AM 71.6 °F - 69.8 °F 94% 29.97 in 10.0 mi West 5.8 mph - N/A   Clear
2:55 AM 69.8 °F - 69.8 °F 100% 29.97 in 10.0 mi West 4.6 mph - N/A   Clear
3:15 AM 69.8 °F - 69.8 °F 100% 29.97 in 10.0 mi West 5.8 mph - N/A   Clear
3:35 AM 69.8 °F - 69.8 °F 100% 29.97 in 10.0 mi West 5.8 mph - N/A   Clear
3:55 AM 69.8 °F - 69.8 °F 100% 29.98 in 10.0 mi West 4.6 mph - N/A   Clear
4:15 AM 69.8 °F - 69.8 °F 100% 29.97 in 10.0 mi West 5.8 mph - N/A   Clear
4:35 AM 69.8 °F - 69.8 °F 100% 29.98 in 7.0 mi West 5.8 mph - N/A   Clear
4:55 AM 69.8 °F - 69.8 °F 100% 29.98 in 7.0 mi West 5.8 mph - N/A   Mostly Cloudy
5:15 AM 69.8 °F - 69.8 °F 100% 29.99 in 4.0 mi West 5.8 mph - N/A   Overcast
5:35 AM 69.8 °F - 69.8 °F 100% 30.00 in 2.5 mi West 5.8 mph - N/A   Overcast
5:55 AM 69.8 °F - 69.8 °F 100% 30.00 in 2.5 mi West 4.6 mph - N/A   Overcast
6:15 AM 69.8 °F - 69.8 °F 100% 30.02 in 1.2 mi West 3.5 mph - N/A   Overcast
6:35 AM 69.8 °F - 69.8 °F 100% 30.02 in 0.8 mi West 4.6 mph - N/A   Overcast
6:55 AM 69.8 °F - 69.8 °F 100% 30.03 in 0.8 mi West 4.6 mph - N/A   Overcast
7:15 AM 69.8 °F - 69.8 °F 100% 30.03 in 0.8 mi West 3.5 mph - N/A   Overcast
7:35 AM 69.8 °F - 69.8 °F 100% 30.04 in 0.8 mi West 4.6 mph - N/A   Overcast
7:55 AM 69.8 °F - 69.8 °F 100% 30.05 in 3.0 mi West 5.8 mph - N/A   Overcast
8:15 AM 69.8 °F - 69.8 °F 100% 30.06 in 7.0 mi West 4.6 mph - N/A   Mostly Cloudy
8:35 AM 69.8 °F - 69.8 °F 100% 30.06 in 7.0 mi WSW 4.6 mph - N/A   Scattered Clouds
8:55 AM 71.6 °F - 69.8 °F 94% 30.07 in 10.0 mi West 5.8 mph - N/A   Scattered Clouds
9:15 AM 73.4 °F - 69.8 °F 88% 30.08 in 10.0 mi West 6.9 mph - N/A   Scattered Clouds
9:35 AM 77.0 °F - 69.8 °F 78% 30.09 in 10.0 mi West 5.8 mph - N/A   Clear
9:55 AM 78.8 °F - 71.6 °F 78% 30.09 in 10.0 mi West 6.9 mph - N/A   Clear
10:15 AM 78.8 °F - 71.6 °F 78% 30.09 in 10.0 mi West 8.1 mph - N/A   Clear
10:35 AM 80.6 °F 84.6 °F 71.6 °F 74% 30.09 in 10.0 mi WNW 10.4 mph - N/A   Clear
10:55 AM 82.4 °F 88.2 °F 73.4 °F 74% 30.09 in 10.0 mi WNW 6.9 mph - N/A   Clear
11:15 AM 84.2 °F 90.9 °F 73.4 °F 70% 30.09 in 10.0 mi West 8.1 mph - N/A   Clear
11:35 AM 86.0 °F 93.4 °F 73.4 °F 66% 30.09 in 10.0 mi NW 8.1 mph - N/A   Clear
11:55 AM 86.0 °F 93.4 °F 73.4 °F 66% 30.09 in 10.0 mi West 9.2 mph - N/A   Scattered Clouds
12:15 PM 86.0 °F 93.4 °F 73.4 °F 66% 30.09 in 10.0 mi WNW 4.6 mph 9.2 mph N/A   Scattered Clouds
12:35 PM 87.8 °F 95.6 °F 73.4 °F 62% 30.08 in 10.0 mi WNW 5.8 mph - N/A   Scattered Clouds
12:55 PM 87.8 °F 95.6 °F 73.4 °F 62% 30.08 in 10.0 mi West 4.6 mph - N/A   Scattered Clouds
1:15 PM 87.8 °F 93.8 °F 71.6 °F 58% 30.08 in 10.0 mi NNW 6.9 mph - N/A   Mostly Cloudy
1:35 PM 89.6 °F 96.2 °F 71.6 °F 55% 30.08 in 10.0 mi West 8.1 mph - N/A   Scattered Clouds
1:55 PM 86.0 °F 91.8 °F 71.6 °F 62% 30.08 in 7.0 mi NE 11.5 mph - N/A Thunderstorm Thunderstorm
2:15 PM 80.6 °F 85.4 °F 73.4 °F 79% 30.07 in 10.0 mi Calm Calm - N/A Thunderstorm Thunderstorm
2:35 PM 78.8 °F - 71.6 °F 78% 30.07 in 5.0 mi NW 5.8 mph 19.6 mph N/A Thunderstorm Thunderstorm
2:55 PM 77.0 °F - 69.8 °F 78% 30.09 in 10.0 mi NW 9.2 mph - N/A Thunderstorm Thunderstorm
3:15 PM 75.2 °F - 68.0 °F 78% 30.10 in 10.0 mi West 9.2 mph - N/A Thunderstorm Clear
3:30 PM 73.4 °F - 64.4 °F 73% 30.07 in 10.0 mi WSW 6.9 mph - N/A Thunderstorm Thunderstorm
3:55 PM 71.6 °F - 66.2 °F 83% 30.09 in 10.0 mi Calm Calm - N/A Thunderstorm Thunderstorm
4:15 PM 73.4 °F - 66.2 °F 78% 30.08 in 10.0 mi WSW 6.9 mph - N/A Thunderstorm Thunderstorm
4:55 PM 75.2 °F - 68.0 °F 78% 30.09 in 10.0 mi WSW 3.5 mph - N/A Thunderstorm Scattered Clouds
5:15 PM 77.0 °F - 68.0 °F 74% 30.10 in 10.0 mi West 6.9 mph - N/A Thunderstorm Thunderstorm
5:35 PM 73.4 °F - 68.0 °F 83% 30.07 in 10.0 mi West 6.9 mph - N/A Thunderstorm Thunderstorm
5:55 PM 73.4 °F - 68.0 °F 83% 30.07 in 10.0 mi Calm Calm - N/A Thunderstorm Thunderstorm
6:15 PM 73.4 °F - 68.0 °F 83% 30.07 in 10.0 mi West 5.8 mph - N/A   Scattered Clouds
6:35 PM 73.4 °F - 68.0 °F 83% 30.06 in 10.0 mi WNW 5.8 mph - N/A   Clear
6:55 PM 75.2 °F - 68.0 °F 78% 30.04 in 10.0 mi West 4.6 mph - N/A   Clear
7:15 PM 75.2 °F - 68.0 °F 78% 30.04 in 10.0 mi Calm Calm - N/A   Clear
7:35 PM 75.2 °F - 68.0 °F 78% 30.07 in 10.0 mi West 4.6 mph - N/A   Scattered Clouds
7:55 PM 73.4 °F - 69.8 °F 88% 30.08 in 10.0 mi Calm Calm - N/A   Clear
8:15 PM 73.4 °F - 68.0 °F 83% 30.09 in 10.0 mi SSW 3.5 mph - N/A   Clear
8:35 PM 73.4 °F - 68.0 °F 83% 30.09 in 10.0 mi Calm Calm - N/A   Clear
8:55 PM 73.4 °F - 68.0 °F 83% 30.11 in 10.0 mi Calm Calm - N/A   Clear
9:15 PM 71.6 °F - 68.0 °F 88% 30.11 in 10.0 mi NW 3.5 mph - N/A   Clear
9:35 PM 71.6 °F - 68.0 °F 88% 30.12 in 10.0 mi NW 4.6 mph - N/A   Clear
9:55 PM 71.6 °F - 68.0 °F 88% 30.12 in 10.0 mi NW 4.6 mph - N/A   Clear
10:15 PM 71.6 °F - 68.0 °F 88% 30.11 in 10.0 mi WNW 3.5 mph - N/A   Clear
10:35 PM 71.6 °F - 68.0 °F 88% 30.12 in 10.0 mi West 5.8 mph - N/A   Clear
10:55 PM 73.4 °F - 68.0 °F 83% 30.13 in 10.0 mi NW 5.8 mph - N/A   Clear
11:15 PM 73.4 °F - 68.0 °F 83% 30.15 in 10.0 mi Calm Calm - N/A   Clear
11:35 PM 71.6 °F - 68.0 °F 88% 30.14 in 10.0 mi NW 4.6 mph - N/A   Clear
11:55 PM 73.4 °F - 66.2 °F 78% 30.14 in 10.0 mi NW 8.1 mph - N/A   Clear